Temp
42 42 41 42 42 43 42 41 37 33 35 43 45 52 53 53 53 55 56 57 51 51 53 54 56 59 60 61 61 62 63 63 64 64 64 64 65 65
40 38 39 39 40 41 41 41 41 38 33 41 43 47 49 51 51 51 52 53 55 50 50 51 53 55 58 58 59 59 60 61 62 62 62 63 64 64
35 35 36 38 38 39 40 40 40 39 35 39 44 46 46 45 47 50 51 53 55 51 49 50 50 52 55 55 55 56 57 58 59 60 61 61 62 63
33 34 35 39 37 39 39 39 39 40 38 35 41 42 43 45 44 45 50 53 53 55 49 49 50 49 50 51 52 53 54 54 55 56 57 59 60 61
32 34 35 36 36 36 37 36 38 40 39 37 37 41 42 42 41 43 46 48 51 54 52 47 48 49 49 49 52 52 51 51 51 51 52 53 55 57
33 34 35 35 34 34 35 34 35 33 33 32 33 35 38 40 39 37 39 46 46 55 55 50 48 48 49 49 50 51 51 50 50 50 49 48 49 51
32 34 33 35 37 35 33 31 30 28 28 28 28 30 32 33 33 35 35 38 41 46 51 55 52 50 51 49 51 50 51 50 50 50 49 49 48 49
29 29 30 34 32 33 32 32 31 28 26 26 27 27 29 31 33 33 33 32 32 43 49 50 50 52 52 53 50 50 48 48 48 48 48 48 48 46
28 27 28 32 30 29 29 31 31 31 30 29 26 28 29 32 34 33 33 34 34 40 43 42 42 48 50 53 47 46 47 48 49 49 48 46 46 45
27 26 27 27 27 28 27 27 28 28 30 31 29 29 30 32 31 32 31 31 33 36 39 35 40 38 34 37 41 46 46 46 48 47 47 46 45 45
26 26 26 25 28 29 25 24 24 25 30 30 30 31 32 33 33 31 27 26 26 30 37 37 39 33 33 33 34 42 45 45 46 46 46 46 46 45
23 23 25 26 28 28 24 22 20 22 23 23 25 26 29 30 31 31 30 26 26 27 35 36 34 33 34 33 33 34 37 42 45 45 46 46 45 49
19 19 21 26 27 27 26 22 21 23 21 22 22 23 24 25 27 30 32 30 28 28 35 39 35 34 33 32 32 33 34 36 41 44 45 44 45 45
17 19 21 26 25 24 23 25 24 21 20 19 19 19 20 21 23 26 29 31 33 34 36 40 38 37 34 32 32 32 33 33 37 38 41 42 43 42
19 22 23 24 22 20 22 23 20 17 17 16 16 17 19 21 24 26 29 32 31 32 37 38 40 43 40 36 31 32 32 32 34 35 36 38 38 37
17 16 15 20 15 16 16 17 17 17 15 15 15 17 19 20 22 26 26 29 29 32 35 38 42 45 42 41 35 33 32 31 34 35 35 35 36 38
16 15 14 13 12 13 14 14 15 15 14 14 14 15 16 18 21 25 26 28 28 32 35 39 40 46 46 42 37 36 34 32 34 34 34 33 34 35
13 12 11 11 10 11 11 12 13 13 13 13 13 14 14 16 19 23 26 26 26 34 38 35 38 35 33 34 39 37 36 34 34 34 35 34 32 34
12 11 10 10 10 10 11 11 10 12 13 12 12 13 14 16 19 21 23 25 26 30 38 37 39 40 36 35 31 37 37 34 33 33 34 34 32 32
12 11 10 11 10 10 10 10 10 11 11 11 11 12 13 15 18 20 23 23 26 27 32 35 39 42 41 37 31 32 36 34 34 33 33 32 32 32
10 10 10 11 10 9 9 10 9 9 10 10 10 11 12 15 17 19 22 24 26 26 26 29 32 33 35 35 32 30 30 35 36 34 30 29 28 29
9 9 10 11 9 8 8 8 7 7 8 9 9 10 11 15 17 18 21 23 25 26 26 29 31 33 33 34 32 29 29 30 32 32 31 30 30 26
7 8 9 10 10 8 8 6 5 6 6 8 9 10 11 14 17 18 20 23 25 25 25 26 28 30 31 32 31 30 27 28 28 27 27 30 30 30
MSLP
1019.32 1018.91 1018.63 1018.06 1017.45 1016.89 1016.25 1015.62 1014.57 1012.00 1010.56 1010.17 1009.65 1009.18 1008.68 1008.17 1007.45 1006.74 1005.79 1004.65 1004.39 1003.85 1002.77 1002.70 1002.70 1003.45 1003.34 1003.95 1004.98 1005.99 1006.52 1007.22 1008.27 1009.06 1009.86 1010.52 1011.11 1011.95
1019.74 1019.30 1018.77 1018.21 1017.57 1016.78 1015.96 1015.15 1014.51 1013.32 1010.70 1010.86 1009.89 1009.25 1008.79 1008.36 1007.73 1006.84 1005.68 1004.61 1003.70 1002.92 1002.26 1002.60 1001.81 1002.58 1001.35 1002.41 1003.75 1004.67 1005.49 1006.17 1006.95 1007.80 1008.77 1009.67 1010.22 1010.79
1019.88 1019.36 1018.76 1018.13 1017.31 1016.53 1015.64 1014.79 1014.05 1013.32 1011.36 1009.93 1009.75 1008.99 1008.48 1008.17 1007.69 1006.65 1005.30 1004.05 1003.03 1002.15 1001.33 1000.61 1001.02 1001.50 1000.76 1000.14 1002.35 1003.17 1004.03 1004.88 1005.76 1006.60 1007.52 1008.44 1009.14 1009.69
1019.75 1019.18 1018.42 1017.64 1016.93 1016.11 1015.28 1014.43 1013.55 1012.90 1011.79 1009.78 1009.51 1009.02 1008.04 1007.62 1007.09 1006.26 1004.92 1003.60 1002.62 1001.47 1000.64 1000.05 1000.18 1000.56 1000.33 999.93 1000.11 1001.86 1002.78 1003.78 1004.46 1005.31 1006.24 1007.19 1008.01 1008.84
1019.79 1018.98 1018.04 1017.33 1016.57 1015.90 1015.22 1014.32 1013.46 1012.48 1011.66 1010.30 1008.84 1008.63 1007.94 1007.45 1006.48 1005.96 1004.61 1003.12 1002.02 1000.55 999.51 999.13 999.18 999.68 999.52 1000.16 999.32 1000.43 1001.34 1002.51 1003.28 1003.97 1004.93 1005.92 1006.91 1007.79
1019.64 1019.01 1018.07 1017.41 1016.70 1015.86 1014.99 1014.33 1013.46 1012.68 1011.78 1010.90 1009.57 1008.69 1007.94 1007.17 1006.78 1005.77 1004.08 1002.77 1001.54 999.93 998.45 998.01 998.24 998.41 998.39 998.24 999.23 999.03 1000.28 1001.18 1002.09 1002.81 1003.48 1004.62 1005.68 1006.51
1019.54 1018.94 1018.33 1017.50 1016.63 1016.16 1015.41 1014.64 1014.06 1013.18 1012.07 1010.92 1009.64 1008.70 1007.96 1007.03 1006.34 1005.58 1004.47 1003.28 1001.84 1000.50 998.54 997.27 997.70 998.08 998.05 998.83 998.02 999.18 998.05 999.84 1000.24 1001.39 1002.41 1003.40 1004.46 1005.21
1019.48 1018.94 1018.31 1017.31 1016.92 1016.30 1015.78 1015.11 1014.34 1013.08 1012.00 1010.95 1009.72 1008.65 1007.99 1007.32 1006.23 1005.31 1004.51 1003.29 1001.53 999.99 998.22 996.71 996.36 996.50 996.00 996.52 997.18 997.00 998.21 996.60 999.32 1000.05 1001.22 1002.46 1003.39 1004.09
1019.88 1019.14 1018.21 1017.48 1016.90 1016.14 1015.31 1014.43 1013.42 1012.57 1011.93 1010.97 1009.53 1008.54 1007.47 1006.91 1006.04 1004.75 1003.87 1003.10 1001.60 1000.34 999.56 997.54 997.00 995.42 994.99 994.40 994.22 994.99 995.99 997.24 997.86 998.59 999.70 1001.25 1002.41 1003.04
1020.10 1019.33 1018.48 1017.61 1016.85 1015.78 1014.68 1013.76 1012.86 1012.09 1011.26 1010.49 1009.67 1008.61 1007.59 1006.72 1006.14 1005.12 1003.76 1002.34 1001.38 1000.69 1000.33 998.31 996.88 996.04 995.13 994.62 994.57 994.11 994.01 995.54 997.28 997.50 998.31 999.66 1001.05 1001.85
1020.16 1019.44 1018.68 1017.76 1016.69 1015.63 1014.61 1013.51 1012.45 1011.56 1010.76 1009.87 1008.96 1007.81 1006.55 1005.59 1004.97 1003.94 1003.02 1001.99 999.81 998.81 998.80 998.22 996.38 995.93 995.86 994.95 994.52 993.89 993.67 994.77 994.79 996.26 997.19 998.21 999.65 1000.75
1020.26 1019.50 1018.74 1017.74 1016.57 1015.52 1014.68 1013.65 1012.16 1011.10 1009.93 1008.76 1007.89 1006.89 1005.86 1004.77 1003.82 1003.01 1002.30 1001.06 1000.04 998.05 995.33 996.47 996.01 995.82 995.48 994.75 994.57 993.98 993.46 993.45 995.33 995.82 996.13 996.86 998.23 999.97
1020.47 1019.61 1018.74 1017.64 1016.59 1015.78 1014.95 1014.19 1013.00 1011.46 1009.87 1008.63 1007.26 1006.14 1005.07 1004.05 1002.90 1001.95 1001.16 1000.29 998.73 996.78 995.56 995.17 994.11 994.32 994.45 993.98 994.59 994.35 993.96 994.33 994.70 995.15 995.64 996.01 996.89 998.48
1020.77 1019.92 1019.05 1017.95 1017.05 1016.12 1015.21 1013.96 1012.74 1011.55 1010.12 1008.68 1007.31 1005.88 1004.52 1003.38 1002.20 1000.82 999.75 998.50 997.19 995.42 995.28 994.51 993.82 992.82 992.78 993.64 994.02 994.42 994.79 994.88 995.07 994.98 995.47 996.29 996.95 997.70
1020.90 1020.16 1019.30 1018.31 1017.41 1016.31 1015.30 1014.14 1012.99 1011.79 1010.48 1008.81 1007.08 1005.52 1004.39 1002.86 1001.06 999.15 997.44 995.85 994.47 993.46 992.85 992.78 992.20 991.28 991.19 991.42 992.27 992.87 994.22 994.77 995.13 994.92 995.46 996.07 996.44 997.53
1020.80 1020.17 1019.47 1018.63 1017.78 1016.76 1015.40 1014.15 1013.05 1011.90 1010.70 1008.98 1007.19 1005.56 1003.84 1001.94 1000.02 998.17 995.88 993.87 992.35 990.18 989.78 990.05 989.96 989.79 989.33 989.82 990.87 991.92 992.34 993.31 994.30 994.54 994.79 996.06 996.74 997.17
1020.91 1020.26 1019.41 1018.54 1017.55 1016.50 1015.42 1014.44 1013.26 1012.01 1010.63 1009.16 1007.41 1005.39 1003.39 1001.35 999.20 996.91 994.62 992.53 990.50 988.07 987.23 987.03 987.85 987.43 987.91 988.25 989.95 990.69 991.11 992.23 992.93 993.74 994.45 995.92 996.88 997.08
1021.25 1020.73 1019.98 1019.31 1018.47 1017.36 1016.15 1014.83 1013.69 1012.42 1011.09 1009.58 1007.80 1006.02 1003.84 1001.48 998.81 995.91 993.97 991.69 989.16 986.49 985.65 985.62 985.88 986.81 987.73 987.99 988.84 989.54 990.34 990.74 992.01 993.29 993.90 994.62 996.53 997.17
1021.71 1021.15 1020.65 1019.80 1019.03 1017.98 1016.85 1015.64 1014.23 1012.92 1011.54 1009.89 1008.06 1005.94 1003.84 1001.52 998.92 996.30 993.85 991.28 988.59 986.45 984.53 984.72 984.70 984.66 986.19 987.57 988.76 988.49 988.75 989.89 991.17 992.93 992.95 993.60 995.27 996.69
1022.21 1021.68 1021.04 1020.13 1019.44 1018.45 1017.22 1015.97 1014.59 1013.04 1011.55 1009.89 1008.03 1006.14 1004.03 1001.65 998.65 996.01 993.57 991.46 989.22 986.92 985.06 984.44 984.00 982.98 983.62 985.44 987.48 988.60 988.49 988.89 989.68 991.43 992.89 994.19 995.43 996.92
1022.68 1021.99 1021.30 1020.34 1019.69 1018.90 1017.74 1016.46 1015.41 1013.71 1012.07 1010.31 1008.32 1006.41 1004.10 1001.53 998.83 996.54 994.14 991.89 989.81 988.21 986.54 985.41 984.75 983.84 983.31 984.43 986.86 988.16 989.05 989.55 990.12 990.60 991.73 993.44 995.24 996.88
1023.11 1022.31 1021.52 1020.65 1019.88 1019.18 1018.09 1016.94 1015.70 1014.12 1012.46 1010.76 1008.81 1006.81 1004.47 1001.91 999.61 997.27 994.81 992.59 990.72 989.32 987.97 986.73 985.70 984.91 984.34 984.17 985.68 986.95 988.63 990.01 990.97 991.59 992.72 993.20 993.85 994.99
1023.45 1022.61 1021.78 1020.91 1020.04 1019.40 1018.37 1017.42 1016.38 1014.83 1013.35 1011.46 1009.54 1007.37 1005.18 1002.50 1000.37 998.31 995.98 993.74 991.84 990.03 989.18 988.14 986.51 986.02 985.73 985.52 985.84 987.26 988.81 990.19 991.38 992.26 993.58 994.07 994.47 994.70
Wind_Speed
9 9 9 9 9 9 10 10 11 16 16 10 12 13 12 13 14 16 18 20 17 21 22 25 35 40 32 32 33 32 32 33 32 31 31 31 30 29
8 11 10 9 11 10 10 9 10 13 17 11 12 16 14 13 16 18 19 27 23 21 25 25 26 23 35 33 31 31 31 31 31 30 29 28 28 29
11 11 13 13 10 10 10 10 10 11 16 12 14 14 16 17 16 16 16 17 14 17 23 24 25 27 36 34 31 32 31 31 30 30 28 28 29 29
13 13 13 11 13 12 10 13 12 11 13 22 14 13 17 17 17 19 14 13 16 20 21 27 24 22 21 28 31 30 29 30 29 28 28 29 29 29
13 14 14 14 13 12 13 12 11 11 13 14 14 11 13 14 15 16 15 15 15 26 21 25 26 24 22 21 30 32 31 29 28 27 27 27 26 27
13 13 13 14 15 15 12 13 11 12 13 13 13 13 11 11 14 15 13 10 14 15 15 13 18 25 28 23 29 33 32 30 29 29 29 26 25 25
12 12 13 19 22 20 12 13 15 14 14 14 15 14 12 13 15 14 15 13 15 14 15 12 8 10 14 25 26 29 31 35 34 32 30 30 28 27
14 14 13 16 18 22 24 26 22 16 16 14 14 14 15 14 13 14 15 14 13 8 9 14 6 10 11 13 28 30 31 32 31 30 29 30 29 26
13 14 14 12 17 15 21 24 21 24 18 17 18 16 17 13 14 16 17 16 16 14 12 14 6 11 9 10 14 20 23 29 33 32 29 27 27 26
13 14 15 16 16 22 19 17 16 15 14 12 15 18 18 17 17 18 20 22 18 16 14 16 8 7 3 3 8 18 23 26 29 29 30 29 27 26
13 13 15 15 25 30 18 18 17 15 17 27 27 28 29 29 26 15 14 16 17 15 11 13 11 3 3 3 3 7 19 27 25 30 31 30 28 26
12 13 20 21 29 30 18 17 17 18 20 18 14 16 19 18 25 16 12 16 15 15 12 12 4 3 4 3 2 2 1 14 27 27 28 29 27 13
10 11 11 28 29 30 28 14 19 23 20 16 14 12 12 12 11 12 13 13 16 20 11 6 5 5 2 2 0 1 1 2 8 12 23 26 30 21
10 10 12 28 29 29 22 31 31 20 13 14 13 13 13 13 14 15 18 17 18 23 19 16 10 8 6 4 4 3 2 2 5 7 9 13 18 18
10 18 25 26 27 18 28 30 21 12 14 14 15 14 15 15 19 17 17 20 21 24 21 24 19 15 9 4 5 5 6 4 4 9 9 11 11 12
11 10 11 16 13 13 15 16 13 13 14 14 15 16 15 15 16 15 15 14 16 16 22 25 23 21 13 8 5 9 5 8 8 7 9 6 6 8
11 9 10 12 14 14 13 14 14 14 15 15 16 16 17 17 17 16 15 14 16 12 13 13 23 24 12 10 7 8 12 5 10 11 12 8 5 6
8 10 11 11 13 14 15 15 15 18 15 15 15 16 17 17 19 18 15 14 13 11 12 7 11 6 2 4 1 11 9 10 10 12 11 10 7 7
8 9 11 11 13 13 13 14 16 15 18 15 16 16 17 17 21 17 16 15 15 13 8 9 13 12 10 11 2 3 11 12 14 10 11 8 10 9
10 9 11 10 12 13 14 14 15 15 16 16 16 17 17 17 18 18 17 17 15 13 5 1 9 14 15 13 7 3 9 13 14 14 11 9 11 18
10 10 10 11 10 13 13 13 16 15 17 16 17 17 18 17 18 18 18 23 17 10 11 6 6 5 10 12 7 5 4 8 7 9 16 14 13 9
10 10 10 11 9 12 13 13 15 15 17 16 17 17 18 17 18 20 18 18 15 11 10 8 7 3 3 3 10 12 9 9 16 20 12 10 7 13
10 10 10 11 10 11 13 12 15 15 16 17 17 17 18 18 18 18 18 17 15 11 10 7 7 6 3 6 13 10 15 17 13 10 8 17 18 23
Wind_Direction
340 336 330 314 307 305 302 296 294 302 301 309 307 319 313 312 315 313 307 298 265 232 225 235 254 223 201 197 197 200 199 198 201 202 205 206 207 206
336 327 316 314 306 299 294 293 291 294 295 308 301 304 307 307 308 307 301 300 299 240 224 222 238 246 202 196 195 197 200 198 198 199 203 206 207 206
326 322 315 314 301 300 292 287 284 283 285 296 293 299 304 307 298 302 296 299 293 267 245 234 232 225 228 196 195 194 194 196 198 198 199 201 205 209
326 318 311 308 304 299 297 297 294 293 297 299 307 298 298 303 306 292 294 293 291 281 239 239 228 219 224 201 192 193 195 197 195 195 195 200 202 206
322 315 316 317 320 321 314 304 302 299 295 294 302 306 299 302 308 300 297 285 279 279 261 228 226 220 227 223 199 195 193 194 194 190 192 196 198 202
323 319 328 332 321 319 320 318 318 326 322 311 309 309 307 305 302 302 299 307 308 292 269 236 205 215 219 217 223 200 197 194 194 194 189 190 192 195
326 335 334 324 332 338 332 337 327 317 309 303 301 299 300 303 300 300 294 299 296 294 289 269 209 202 219 207 214 223 199 200 199 196 196 196 196 194
336 337 329 328 341 332 333 322 312 309 301 297 298 295 296 293 289 291 293 297 303 285 296 301 219 210 220 201 199 205 203 201 195 194 196 200 199 194
338 334 330 339 337 330 322 321 313 311 302 295 290 289 292 293 292 293 289 283 282 284 295 290 302 243 215 239 218 206 197 205 205 197 194 195 199 197
339 336 334 334 329 334 330 322 323 316 309 308 304 298 291 290 285 283 286 287 281 275 271 272 268 265 303 277 301 216 183 192 209 200 193 191 196 196
342 340 341 332 330 338 334 329 324 316 315 314 308 302 296 294 290 279 271 276 279 268 249 251 257 237 236 269 275 270 216 192 194 204 196 194 196 197
345 338 334 335 342 343 340 335 325 328 325 317 311 306 299 291 295 273 268 267 267 285 233 224 214 188 243 193 214 306 7 201 208 200 193 189 185 191
342 337 332 337 345 345 345 331 332 329 320 319 315 312 309 302 296 286 271 260 260 248 276 280 197 181 243 100 129 13 77 151 201 200 200 185 179 168
338 331 335 345 346 344 343 339 338 329 323 322 318 318 316 312 301 289 273 262 254 260 251 245 247 209 163 157 204 146 119 106 174 161 167 167 170 167
345 345 343 344 342 339 340 340 337 331 326 323 324 320 315 306 301 292 283 270 255 247 247 234 249 222 210 189 165 171 146 179 155 160 147 169 158 152
353 337 331 338 333 330 335 339 338 334 329 326 322 316 310 312 308 301 297 288 277 254 233 228 236 229 212 187 171 159 165 163 168 165 140 139 152 168
350 341 345 348 345 343 341 340 338 336 334 331 323 321 317 317 311 309 306 294 290 240 236 217 219 219 212 168 178 188 167 148 168 158 144 142 156 156
355 352 347 348 345 340 339 337 337 335 332 327 323 319 318 316 315 315 315 307 309 255 228 182 171 137 100 28 263 176 181 156 159 163 158 146 147 153
352 354 346 343 343 338 336 336 333 332 329 328 324 322 321 316 321 320 322 320 324 319 207 184 182 171 165 187 306 243 167 159 153 169 160 156 150 156
355 346 343 338 345 338 334 336 333 329 332 329 327 325 323 320 324 327 330 330 330 329 313 276 207 181 176 178 151 175 167 155 162 159 149 108 97 108
346 342 340 336 345 340 331 337 334 329 330 329 329 325 325 324 328 330 329 335 336 338 338 347 336 322 102 108 107 116 112 108 144 158 146 131 138 139
341 337 338 333 343 344 332 341 334 333 333 332 330 327 326 325 332 331 332 335 337 340 331 333 332 331 15 125 143 131 120 101 99 107 75 35 165 161
339 333 337 331 341 346 334 344 335 331 332 330 329 328 327 329 334 331 332 334 335 340 341 330 358 356 353 111 122 120 124 125 131 106 82 88 93 92